| time (UTC) | temp F | wind direction | speed MPH | gust MPH | rain 1hr in | rain 24hr in | rain mn in | humidity % | barometer mb |
| 20260504173058 | 74 | 204 | 11.0 | 18.0 | 0.00 | 0.00 | 0.00 | 44 | 1011.5 |
| 20260504172559 | 74 | 183 | 15.0 | 18.0 | 0.00 | 0.00 | 0.00 | 44 | 1011.1 |
| 20260504172058 | 74 | 183 | 15.0 | 20.0 | 0.00 | 0.00 | 0.00 | 44 | 1011.5 |
| 20260504171558 | 74 | 183 | 15.0 | 20.0 | 0.00 | 0.00 | 0.00 | 44 | 1011.5 |
| 20260504171058 | 74 | 240 | 9.0 | 20.0 | 0.00 | 0.00 | 0.00 | 44 | 1011.5 |
| 20260504170558 | 74 | 127 | 4.0 | 20.0 | 0.00 | 0.00 | 0.00 | 45 | 1011.8 |
| 20260504151058 | 69 | 164 | 9.0 | 15.0 | 0.00 | 0.00 | 0.00 | 52 | 1012.8 |
| 20260504150558 | 68 | 160 | 7.0 | 18.0 | 0.00 | 0.00 | 0.00 | 52 | 1012.8 |
| 20260504140842 | 66 | 213 | 7.0 | 17.0 | 0.00 | 0.00 | 0.00 | 56 | 1013.2 |
| 20260504140342 | 66 | 213 | 7.0 | 17.0 | 0.00 | 0.00 | 0.00 | 56 | 1012.8 |
| 20260504130800 | 61 | 178 | 6.0 | 9.0 | 0.00 | 0.00 | 0.00 | 62 | 1013.2 |
| 20260504130300 | 60 | 166 | 5.0 | 10.0 | 0.00 | 0.00 | 0.00 | 62 | 1013.2 |
| 20260504120300 | 57 | 125 | 3.0 | 9.0 | 0.00 | 0.00 | 0.00 | 63 | 1012.8 |
| 20260504110300 | 56 | 165 | 6.0 | 8.0 | 0.00 | 0.00 | 0.00 | 63 | 1012.5 |
| 20260504100300 | 57 | 157 | 4.0 | 7.0 | 0.00 | 0.00 | 0.00 | 62 | 1012.5 |
| 20260504081800 | 58 | 165 | 8.0 | 10.0 | 0.00 | 0.00 | 0.00 | 59 | 1012.1 |
| 20260504081300 | 58 | 170 | 3.0 | 9.0 | 0.00 | 0.00 | 0.00 | 59 | 1012.1 |
| 20260504080800 | 58 | 147 | 7.0 | 9.0 | 0.00 | 0.00 | 0.00 | 59 | 1012.1 |
| 20260504080300 | 58 | 151 | 5.0 | 9.0 | 0.00 | 0.00 | 0.00 | 59 | 1012.5 |
| 20260504070300 | 57 | 175 | 10.0 | 13.0 | 0.00 | 0.00 | 0.00 | 59 | 1013.2 |
| 20260504050300 | 58 | 177 | 5.0 | 10.0 | 0.00 | 0.00 | 0.00 | 58 | 1013.9 |
| 20260504045800 | 58 | 177 | 5.0 | 11.0 | 0.00 | 0.00 | 0.00 | 58 | 1013.9 |
| 20260504045259 | 58 | 181 | 3.0 | 11.0 | 0.00 | 0.00 | 0.00 | 58 | 1013.9 |
| 20260504044800 | 58 | 184 | 5.0 | 9.0 | 0.00 | 0.00 | 0.00 | 57 | 1013.9 |
| 20260504044300 | 58 | 184 | 5.0 | 9.0 | 0.00 | 0.00 | 0.00 | 57 | 1014.2 |
| 20260504043800 | 58 | 182 | 5.0 | 9.0 | 0.00 | 0.00 | 0.00 | 57 | 1014.2 |
| 20260504043300 | 58 | 183 | 6.0 | 9.0 | 0.00 | 0.00 | 0.00 | 57 | 1014.2 |
| 20260504042800 | 58 | 183 | 6.0 | 9.0 | 0.00 | 0.00 | 0.00 | 57 | 1014.2 |
| 20260504042300 | 58 | 167 | 7.0 | 8.0 | 0.00 | 0.00 | 0.00 | 58 | 1014.2 |
| 20260504041800 | 58 | 181 | 6.0 | 8.0 | 0.00 | 0.00 | 0.00 | 58 | 1014.2 |
| 20260504041300 | 58 | 181 | 6.0 | 8.0 | 0.00 | 0.00 | 0.00 | 58 | 1014.6 |
| 20260504040759 | 58 | 182 | 5.0 | 7.0 | 0.00 | 0.00 | 0.00 | 58 | 1014.2 |
| 20260504040300 | 58 | 181 | 5.0 | 6.0 | 0.00 | 0.00 | 0.00 | 59 | 1013.9 |
| 20260504035800 | 59 | 188 | 4.0 | 9.0 | 0.00 | 0.00 | 0.00 | 56 | 1014.2 |
| 20260504035300 | 59 | 173 | 8.0 | 9.0 | 0.00 | 0.00 | 0.00 | 56 | 1014.6 |
| 20260504034800 | 59 | 181 | 5.0 | 8.0 | 0.00 | 0.00 | 0.00 | 55 | 1014.2 |
| 20260504034300 | 60 | 166 | 6.0 | 8.0 | 0.00 | 0.00 | 0.00 | 56 | 1014.2 |
| 20260504033800 | 60 | 166 | 6.0 | 9.0 | 0.00 | 0.00 | 0.00 | 56 | 1014.6 |
| 20260504033300 | 60 | 166 | 6.0 | 9.0 | 0.00 | 0.00 | 0.00 | 56 | 1014.2 |
| 20260504032759 | 60 | 167 | 9.0 | 9.0 | 0.00 | 0.00 | 0.00 | 54 | 1014.6 |
| 20260504032300 | 60 | 167 | 9.0 | 9.0 | 0.00 | 0.00 | 0.00 | 54 | 1014.2 |
| 20260504031800 | 60 | 159 | 9.0 | 10.0 | 0.00 | 0.00 | 0.00 | 53 | 1014.6 |
| 20260504031300 | 60 | 159 | 8.0 | 10.0 | 0.00 | 0.00 | 0.00 | 52 | 1014.2 |
| 20260504030800 | 60 | 148 | 8.0 | 10.0 | 0.00 | 0.00 | 0.00 | 52 | 1014.2 |
| 20260504030300 | 61 | 160 | 8.0 | 9.0 | 0.00 | 0.00 | 0.00 | 50 | 1014.6 |
| 20260504025800 | 62 | 163 | 8.0 | 9.0 | 0.00 | 0.00 | 0.00 | 50 | 1014.6 |
| 20260504025300 | 62 | 156 | 7.0 | 7.0 | 0.00 | 0.00 | 0.00 | 48 | 1014.6 |
| 20260504024759 | 62 | 156 | 7.0 | 8.0 | 0.00 | 0.00 | 0.00 | 48 | 1014.6 |
| 20260504024300 | 62 | 162 | 7.0 | 8.0 | 0.00 | 0.00 | 0.00 | 48 | 1014.2 |
| 20260504023800 | 62 | 167 | 7.0 | 8.0 | 0.00 | 0.00 | 0.00 | 49 | 1014.6 |
| 20260504023300 | 62 | 136 | 5.0 | 8.0 | 0.00 | 0.00 | 0.00 | 49 | 1014.6 |
| 20260504022800 | 62 | 154 | 6.0 | 8.0 | 0.00 | 0.00 | 0.00 | 49 | 1014.6 |
| 20260504022300 | 62 | 158 | 6.0 | 8.0 | 0.00 | 0.00 | 0.00 | 49 | 1014.6 |
| 20260504021800 | 63 | 178 | 3.0 | 8.0 | 0.00 | 0.00 | 0.00 | 48 | 1014.6 |
| 20260504021300 | 63 | 178 | 6.0 | 8.0 | 0.00 | 0.00 | 0.00 | 48 | 1014.6 |
| 20260504020800 | 63 | 198 | 3.0 | 8.0 | 0.00 | 0.00 | 0.00 | 47 | 1014.6 |
| 20260504020300 | 63 | 193 | 3.0 | 8.0 | 0.00 | 0.00 | 0.00 | 47 | 1014.6 |
| 20260504015800 | 63 | 179 | 5.0 | 7.0 | 0.00 | 0.00 | 0.00 | 46 | 1014.6 |
| 20260504015259 | 64 | 180 | 6.0 | 8.0 | 0.00 | 0.00 | 0.00 | 46 | 1014.2 |
| 20260504014800 | 64 | 171 | 6.0 | 8.0 | 0.00 | 0.00 | 0.00 | 46 | 1014.2 |
| 20260504014300 | 63 | 174 | 6.0 | 8.0 | 0.00 | 0.00 | 0.00 | 46 | 1014.2 |
| 20260504013800 | 64 | 182 | 7.0 | 7.0 | 0.00 | 0.00 | 0.00 | 46 | 1013.9 |
| 20260504013300 | 64 | 182 | 7.0 | 7.0 | 0.00 | 0.00 | 0.00 | 46 | 1014.2 |
| 20260504012759 | 64 | 178 | 6.0 | 7.0 | 0.00 | 0.00 | 0.00 | 46 | 1013.9 |
| 20260504012300 | 64 | 176 | 5.0 | 7.0 | 0.00 | 0.00 | 0.00 | 46 | 1013.9 |
| 20260504011759 | 64 | 164 | 5.0 | 7.0 | 0.00 | 0.00 | 0.00 | 46 | 1013.9 |
| 20260504011300 | 64 | 180 | 5.0 | 7.0 | 0.00 | 0.00 | 0.00 | 46 | 1013.9 |
| 20260504010800 | 64 | 173 | 5.0 | 8.0 | 0.00 | 0.00 | 0.00 | 45 | 1013.9 |
| 20260504010300 | 64 | 179 | 4.0 | 8.0 | 0.00 | 0.00 | 0.00 | 45 | 1013.5 |
| 20260504005800 | 64 | 183 | 4.0 | 8.0 | 0.00 | 0.00 | 0.00 | 45 | 1013.5 |
| 20260504005300 | 65 | 175 | 5.0 | 8.0 | 0.00 | 0.00 | 0.00 | 45 | 1013.5 |
| 20260504004800 | 65 | 176 | 6.0 | 7.0 | 0.00 | 0.00 | 0.00 | 44 | 1013.5 |
| 20260504004300 | 65 | 182 | 5.0 | 8.0 | 0.00 | 0.00 | 0.00 | 44 | 1013.5 |
| 20260504003800 | 65 | 180 | 4.0 | 9.0 | 0.00 | 0.00 | 0.00 | 43 | 1013.5 |
| 20260504003300 | 66 | 178 | 5.0 | 9.0 | 0.00 | 0.00 | 0.00 | 42 | 1013.5 |
| 20260504002800 | 66 | 191 | 8.0 | 10.0 | 0.00 | 0.00 | 0.00 | 41 | 1013.5 |
| 20260504002300 | 66 | 189 | 8.0 | 10.0 | 0.00 | 0.00 | 0.00 | 40 | 1013.9 |
| 20260504001800 | 67 | 191 | 8.0 | 10.0 | 0.00 | 0.00 | 0.00 | 39 | 1013.5 |
| 20260504001300 | 67 | 191 | 8.0 | 10.0 | 0.00 | 0.00 | 0.00 | 39 | 1013.5 |
| 20260504000759 | 67 | 210 | 5.0 | 10.0 | 0.00 | 0.00 | 0.00 | 39 | 1013.9 |
| 20260504000300 | 67 | 165 | 6.0 | 10.0 | 0.00 | 0.00 | 0.00 | 38 | 1014.2 |
| 20260503235800 | 68 | 175 | 6.0 | 9.0 | 0.00 | 0.00 | 0.00 | 38 | 1013.9 |
| 20260503235300 | 67 | 39 | 3.0 | 9.0 | 0.00 | 0.00 | 0.00 | 38 | 1013.9 |
| 20260503234800 | 68 | 192 | 6.0 | 11.0 | 0.00 | 0.00 | 0.00 | 37 | 1013.9 |
| 20260503234300 | 68 | 179 | 4.0 | 11.0 | 0.00 | 0.00 | 0.00 | 37 | 1014.2 |
| 20260503233800 | 68 | 226 | 5.0 | 9.0 | 0.00 | 0.00 | 0.00 | 37 | 1014.2 |
| 20260503233300 | 68 | 147 | 2.0 | 9.0 | 0.00 | 0.00 | 0.00 | 36 | 1014.2 |
| 20260503232759 | 68 | 135 | 3.0 | 9.0 | 0.00 | 0.00 | 0.00 | 36 | 1014.2 |
| 20260503232300 | 69 | 130 | 5.0 | 9.0 | 0.00 | 0.00 | 0.00 | 35 | 1014.2 |
| 20260503231759 | 69 | 118 | 2.0 | 9.0 | 0.00 | 0.00 | 0.00 | 36 | 1014.2 |
| 20260503231300 | 69 | 220 | 9.0 | 12.0 | 0.00 | 0.00 | 0.00 | 35 | 1014.2 |
| 20260503230759 | 68 | 14 | 2.0 | 12.0 | 0.00 | 0.00 | 0.00 | 36 | 1014.2 |
| 20260503230300 | 68 | 17 | 1.0 | 15.0 | 0.00 | 0.00 | 0.00 | 35 | 1014.2 |
| 20260503225800 | 68 | 216 | 9.0 | 15.0 | 0.00 | 0.00 | 0.00 | 35 | 1014.2 |
| 20260503225259 | 69 | 353 | 3.0 | 17.0 | 0.00 | 0.00 | 0.00 | 34 | 1014.2 |
| 20260503224800 | 69 | 197 | 9.0 | 17.0 | 0.00 | 0.00 | 0.00 | 35 | 1014.2 |
| 20260503224300 | 69 | 216 | 5.0 | 9.0 | 0.00 | 0.00 | 0.00 | 34 | 1014.6 |
| 20260503223800 | 69 | 154 | 3.0 | 12.0 | 0.00 | 0.00 | 0.00 | 34 | 1014.6 |
| 20260503223300 | 68 | 185 | 8.0 | 12.0 | 0.00 | 0.00 | 0.00 | 34 | 1014.6 |
| 20260503222800 | 69 | 225 | 7.0 | 10.0 | 0.00 | 0.00 | 0.00 | 33 | 1014.6 |
| 20260503222300 | 69 | 248 | 7.0 | 11.0 | 0.00 | 0.00 | 0.00 | 33 | 1014.6 |
| 20260503221759 | 69 | 188 | 6.0 | 11.0 | 0.00 | 0.00 | 0.00 | 33 | 1014.6 |
| 20260503221300 | 69 | 253 | 10.0 | 11.0 | 0.00 | 0.00 | 0.00 | 33 | 1014.6 |
| 20260503220759 | 69 | 97 | 3.0 | 12.0 | 0.00 | 0.00 | 0.00 | 33 | 1014.6 |
| 20260503220300 | 69 | 197 | 6.0 | 12.0 | 0.00 | 0.00 | 0.00 | 32 | 1014.6 |
| 20260503215759 | 69 | 209 | 5.0 | 12.0 | 0.00 | 0.00 | 0.00 | 34 | 1014.6 |
| 20260503215300 | 68 | 220 | 7.0 | 11.0 | 0.00 | 0.00 | 0.00 | 33 | 1014.6 |
| 20260503214759 | 69 | 188 | 7.0 | 11.0 | 0.00 | 0.00 | 0.00 | 33 | 1014.9 |
| 20260503214300 | 68 | 199 | 2.0 | 15.0 | 0.00 | 0.00 | 0.00 | 33 | 1014.9 |
| 20260503213759 | 68 | 158 | 5.0 | 15.0 | 0.00 | 0.00 | 0.00 | 33 | 1015.3 |
| 20260503213300 | 68 | 33 | 1.0 | 12.0 | 0.00 | 0.00 | 0.00 | 33 | 1014.9 |
| 20260503212800 | 68 | 262 | 7.0 | 12.0 | 0.00 | 0.00 | 0.00 | 33 | 1015.3 |
| 20260503212300 | 68 | 243 | 8.0 | 12.0 | 0.00 | 0.00 | 0.00 | 32 | 1014.9 |
| 20260503211800 | 68 | 164 | 7.0 | 11.0 | 0.00 | 0.00 | 0.00 | 34 | 1015.3 |
| 20260503211300 | 68 | 220 | 9.0 | 11.0 | 0.00 | 0.00 | 0.00 | 33 | 1015.3 |
| 20260503210800 | 68 | 190 | 7.0 | 11.0 | 0.00 | 0.00 | 0.00 | 32 | 1015.3 |
| 20260503210300 | 69 | 261 | 7.0 | 14.0 | 0.00 | 0.00 | 0.00 | 32 | 1015.3 |
| 20260503205800 | 68 | 195 | 5.0 | 14.0 | 0.00 | 0.00 | 0.00 | 33 | 1015.3 |
| 20260503205300 | 69 | 291 | 5.0 | 11.0 | 0.00 | 0.00 | 0.00 | 32 | 1015.6 |
| 20260503204800 | 68 | 134 | 3.0 | 11.0 | 0.00 | 0.00 | 0.00 | 32 | 1015.6 |
| 20260503204300 | 68 | 61 | 7.0 | 18.0 | 0.00 | 0.00 | 0.00 | 32 | 1015.6 |
| 20260503203800 | 67 | 212 | 4.0 | 18.0 | 0.00 | 0.00 | 0.00 | 33 | 1015.6 |
| 20260503203300 | 67 | 189 | 12.0 | 18.0 | 0.00 | 0.00 | 0.00 | 33 | 1015.6 |
| 20260503202800 | 67 | 236 | 8.0 | 11.0 | 0.00 | 0.00 | 0.00 | 33 | 1015.6 |
| 20260503202300 | 67 | 234 | 5.0 | 13.0 | 0.00 | 0.00 | 0.00 | 33 | 1015.9 |
| 20260503201759 | 67 | 234 | 5.0 | 13.0 | 0.00 | 0.00 | 0.00 | 33 | 1016.3 |
| 20260503201259 | 67 | 183 | 6.0 | 9.0 | 0.00 | 0.00 | 0.00 | 33 | 1016.3 |
| 20260503200800 | 68 | 81 | 4.0 | 6.0 | 0.00 | 0.00 | 0.00 | 32 | 1016.3 |
| 20260503200300 | 68 | 81 | 4.0 | 11.0 | 0.00 | 0.00 | 0.00 | 32 | 1016.3 |
| 20260503195800 | 67 | 320 | 3.0 | 11.0 | 0.00 | 0.00 | 0.00 | 33 | 1016.6 |
| 20260503195300 | 67 | 254 | 7.0 | 11.0 | 0.00 | 0.00 | 0.00 | 33 | 1017.0 |
| 20260503194800 | 67 | 276 | 2.0 | 13.0 | 0.00 | 0.00 | 0.00 | 33 | 1016.6 |
| 20260503194259 | 66 | 157 | 9.0 | 13.0 | 0.00 | 0.00 | 0.00 | 34 | 1016.6 |
| 20260503193759 | 65 | 183 | 6.0 | 13.0 | 0.00 | 0.00 | 0.00 | 35 | 1016.6 |
| 20260503193300 | 65 | 219 | 2.0 | 7.0 | 0.00 | 0.00 | 0.00 | 35 | 1017.0 |
| 20260503192800 | 65 | 335 | 0.0 | 15.0 | 0.00 | 0.00 | 0.00 | 34 | 1017.3 |
| 20260503192300 | 65 | 335 | 0.0 | 16.0 | 0.00 | 0.00 | 0.00 | 34 | 1017.3 |
| 20260503191800 | 65 | 203 | 11.0 | 16.0 | 0.00 | 0.00 | 0.00 | 34 | 1017.7 |
| 20260503191259 | 64 | 296 | 7.0 | 14.0 | 0.00 | 0.00 | 0.00 | 36 | 1017.7 |
| 20260503190800 | 65 | 243 | 10.0 | 12.0 | 0.00 | 0.00 | 0.00 | 34 | 1017.3 |
| 20260503190300 | 65 | 243 | 10.0 | 12.0 | 0.00 | 0.00 | 0.00 | 34 | 1017.7 |
| 20260503185800 | 64 | 2 | 1.0 | 11.0 | 0.00 | 0.00 | 0.00 | 36 | 1017.7 |
| 20260503185300 | 64 | 209 | 5.0 | 11.0 | 0.00 | 0.00 | 0.00 | 35 | 1017.7 |
| 20260503184759 | 64 | 209 | 5.0 | 13.0 | 0.00 | 0.00 | 0.00 | 35 | 1018.0 |
| 20260503184300 | 64 | 209 | 5.0 | 13.0 | 0.00 | 0.00 | 0.00 | 35 | 1018.0 |
| 20260503183800 | 64 | 221 | 7.0 | 13.0 | 0.00 | 0.00 | 0.00 | 34 | 1018.0 |
| 20260503183300 | 64 | 337 | 6.0 | 9.0 | 0.00 | 0.00 | 0.00 | 33 | 1018.0 |
| 20260503182800 | 64 | 337 | 6.0 | 9.0 | 0.00 | 0.00 | 0.00 | 33 | 1018.0 |
| 20260503182300 | 63 | 149 | 4.0 | 17.0 | 0.00 | 0.00 | 0.00 | 34 | 1018.0 |
| 20260503181759 | 63 | 149 | 4.0 | 17.0 | 0.00 | 0.00 | 0.00 | 34 | 1018.0 |
| 20260503181300 | 63 | 220 | 12.0 | 17.0 | 0.00 | 0.00 | 0.00 | 34 | 1018.0 |
| 20260503180800 | 63 | 227 | 5.0 | 15.0 | 0.00 | 0.00 | 0.00 | 35 | 1018.0 |
| 20260503180300 | 63 | 238 | 7.0 | 15.0 | 0.00 | 0.00 | 0.00 | 36 | 1018.0 |
| 20260503175800 | 63 | 300 | 4.0 | 13.0 | 0.00 | 0.00 | 0.00 | 36 | 1018.7 |
| 20260503175259 | 65 | 217 | 10.0 | 13.0 | 0.00 | 0.00 | 0.00 | 35 | 1018.0 |
| 20260503174800 | 64 | 194 | 2.0 | 9.0 | 0.00 | 0.00 | 0.00 | 36 | 1018.7 |
| 20260503174300 | 63 | 179 | 6.0 | 9.0 | 0.00 | 0.00 | 0.00 | 37 | 1018.7 |
| 20260503173800 | 62 | 192 | 0.0 | 12.0 | 0.00 | 0.00 | 0.00 | 37 | 1018.7 |